When you browse on this site, cookies collect data to enhance your experience and personalize the content and advertising you see.
Visit our Privacy Policy to learn more. By continuing to use the site, you agree to this use of cookies and data.
  • In Romania
  • List of Countries
  • For 7 days
  • Water Temperature
  • Satellite Maps
  • Weather Map
  • Weather Widgets
  • user-avatar
    Login

    Hourly Weather Chełmża

    Today, 22 May, Wednesday

    Time Temperature Precipitation Wind Pressure Humidity
    00:00 +15°C° 0 mm 2 mps 746 mmHg 96%
    01:00 +15°C° 0 mm 2 mps 746 mmHg 96%
    02:00 +15°C° 0 mm 2 mps 746 mmHg 96%
    03:00 +14°C° 0 mm 2 mps 746 mmHg 96%
    04:00 +14°C° 0 mm 2 mps 746 mmHg 96%
    05:00 +15°C° 0 mm 2 mps 746 mmHg 91%
    06:00 +16°C° 0 mm 2 mps 746 mmHg 86%
    07:00 +17°C° 0 mm 2 mps 747 mmHg 82%
    08:00 +19°C° 0 mm 2 mps 747 mmHg 75%
    09:00 +20°C° 0 mm 3 mps 747 mmHg 67%
    10:00 +21°C° 0 mm 3 mps 747 mmHg 60%
    11:00 +22°C° 0 mm 3 mps 747 mmHg 58%
    12:00 +24°C° 0 mm 3 mps 747 mmHg 55%
    13:00 +24°C° 0 mm 3 mps 747 mmHg 53%
    14:00 +24°C° 0 mm 3 mps 747 mmHg 53%
    15:00 +24°C° 0 mm 3 mps 747 mmHg 54%
    16:00 +24°C° 0 mm 3 mps 747 mmHg 55%
    17:00 +23°C° 0.3 mm 2 mps 747 mmHg 64%
    18:00 +20°C° 0.3 mm 2 mps 748 mmHg 72%
    19:00 +19°C° 0.3 mm 2 mps 748 mmHg 81%
    20:00 +18°C° 0.4 mm 2 mps 748 mmHg 85%
    21:00 +17°C° 0.4 mm 3 mps 749 mmHg 90%
    22:00 +16°C° 0.4 mm 3 mps 749 mmHg 94%
    23:00 +14°C° 0.2 mm 3 mps 749 mmHg 95%

    Tomorrow, 23 May, Thursday

    Time Temperature Precipitation Wind Pressure Humidity
    00:00 +14°C° 0.2 mm 4 mps 749 mmHg 96%
    01:00 +14°C° 0.2 mm 4 mps 750 mmHg 97%
    02:00 +14°C° 0.2 mm 4 mps 750 mmHg 96%
    03:00 +14°C° 0.2 mm 4 mps 750 mmHg 95%
    04:00 +14°C° 0.2 mm 4 mps 750 mmHg 95%
    05:00 +14°C° 0 mm 4 mps 751 mmHg 93%
    06:00 +14°C° 0 mm 4 mps 751 mmHg 91%
    07:00 +14°C° 0 mm 5 mps 751 mmHg 90%
    08:00 +14°C° 0 mm 5 mps 752 mmHg 87%
    09:00 +14°C° 0 mm 5 mps 752 mmHg 85%
    10:00 +15°C° 0 mm 5 mps 752 mmHg 82%
    11:00 +15°C° 0 mm 4 mps 752 mmHg 80%
    12:00 +15°C° 0 mm 4 mps 753 mmHg 77%
    13:00 +17°C° 0 mm 4 mps 753 mmHg 75%
    14:00 +17°C° 0 mm 4 mps 753 mmHg 72%
    15:00 +16°C° 0 mm 5 mps 753 mmHg 69%
    16:00 +16°C° 0 mm 5 mps 753 mmHg 66%
    17:00 +17°C° 0 mm 4 mps 753 mmHg 66%
    18:00 +15°C° 0 mm 4 mps 753 mmHg 65%
    19:00 +14°C° 0 mm 3 mps 753 mmHg 65%
    20:00 +13°C° 0 mm 3 mps 753 mmHg 64%
    21:00 +11°C° 0 mm 3 mps 754 mmHg 62%
    22:00 +10°C° 0 mm 3 mps 754 mmHg 60%
    23:00 +9°C° 0 mm 3 mps 754 mmHg 67%

    Day after tomorrow, 24 May, Friday

    Time Temperature Precipitation Wind Pressure Humidity
    00:00 +8°C° 0 mm 3 mps 754 mmHg 74%
    01:00 +7°C° 0 mm 3 mps 754 mmHg 81%
    02:00 +7°C° 0 mm 3 mps 754 mmHg 85%
    03:00 +7°C° 0 mm 3 mps 753 mmHg 88%
    04:00 +7°C° 0 mm 3 mps 753 mmHg 91%
    05:00 +9°C° 0 mm 3 mps 753 mmHg 86%
    06:00 +11°C° 0 mm 3 mps 753 mmHg 81%
    07:00 +13°C° 0 mm 3 mps 753 mmHg 75%
    08:00 +14°C° 0 mm 3 mps 753 mmHg 71%
    09:00 +17°C° 0 mm 3 mps 753 mmHg 67%
    10:00 +18°C° 0 mm 4 mps 753 mmHg 64%
    11:00 +19°C° 0.1 mm 3 mps 753 mmHg 62%
    12:00 +20°C° 0.1 mm 3 mps 753 mmHg 60%
    13:00 +20°C° 0.1 mm 3 mps 752 mmHg 58%
    14:00 +20°C° 0.2 mm 3 mps 752 mmHg 60%
    15:00 +20°C° 0.2 mm 3 mps 752 mmHg 62%
    16:00 +20°C° 0.2 mm 4 mps 751 mmHg 64%
    17:00 +19°C° 0.2 mm 3 mps 751 mmHg 70%
    18:00 +17°C° 0.2 mm 3 mps 751 mmHg 77%
    19:00 +16°C° 0.2 mm 2 mps 751 mmHg 83%
    20:00 +15°C° 0 mm 2 mps 751 mmHg 85%
    21:00 +14°C° 0 mm 2 mps 751 mmHg 87%
    22:00 +13°C° 0 mm 1 mps 751 mmHg 89%
    23:00 +13°C° 0 mm 2 mps 750 mmHg 90%

    25 May, Saturday

    Time Temperature Precipitation Wind Pressure Humidity
    00:00 +12°C° 0 mm 2 mps 750 mmHg 91%
    01:00 +12°C° 0 mm 2 mps 750 mmHg 91%
    02:00 +12°C° 0 mm 2 mps 750 mmHg 92%
    03:00 +10°C° 0 mm 3 mps 750 mmHg 93%
    04:00 +10°C° 0 mm 3 mps 750 mmHg 93%
    05:00 +11°C° 0 mm 3 mps 750 mmHg 88%
    06:00 +12°C° 0 mm 4 mps 750 mmHg 83%
    07:00 +13°C° 0 mm 4 mps 750 mmHg 77%
    08:00 +13°C° 0 mm 5 mps 750 mmHg 76%
    09:00 +13°C° 0 mm 5 mps 750 mmHg 74%
    10:00 +13°C° 0 mm 5 mps 750 mmHg 73%
    11:00 +13°C° 0.1 mm 5 mps 751 mmHg 73%
    12:00 +13°C° 0.1 mm 5 mps 751 mmHg 73%
    13:00 +13°C° 0.1 mm 5 mps 751 mmHg 74%
    14:00 +13°C° 0.1 mm 5 mps 751 mmHg 75%
    15:00 +13°C° 0.1 mm 5 mps 751 mmHg 77%
    16:00 +12°C° 0.1 mm 5 mps 750 mmHg 79%
    17:00 +12°C° 0 mm 4 mps 750 mmHg 80%
    18:00 +12°C° 0 mm 4 mps 750 mmHg 81%
    19:00 +11°C° 0 mm 4 mps 750 mmHg 82%
    20:00 +11°C° 0 mm 4 mps 750 mmHg 83%
    21:00 +11°C° 0 mm 4 mps 750 mmHg 84%
    22:00 +11°C° 0 mm 4 mps 750 mmHg 85%
    23:00 +11°C° 0 mm 4 mps 750 mmHg 86%

    26 May, Sunday

    Time Temperature Precipitation Wind Pressure Humidity
    00:00 +10°C° 0 mm 4 mps 749 mmHg 87%
    01:00 +9°C° 0 mm 5 mps 749 mmHg 87%
    02:00 +9°C° 0.1 mm 5 mps 749 mmHg 88%
    03:00 +10°C° 0.1 mm 4 mps 749 mmHg 89%
    04:00 +10°C° 0.1 mm 4 mps 749 mmHg 90%
    05:00 +9°C° 0.1 mm 5 mps 748 mmHg 87%
    06:00 +9°C° 0.1 mm 6 mps 748 mmHg 83%
    07:00 +9°C° 0.1 mm 6 mps 748 mmHg 79%
    08:00 +9°C° 0.2 mm 6 mps 748 mmHg 80%
    09:00 +9°C° 0.2 mm 6 mps 748 mmHg 81%
    10:00 +9°C° 0.2 mm 6 mps 748 mmHg 82%
    11:00 +9°C° 0.2 mm 7 mps 748 mmHg 81%
    12:00 +9°C° 0.2 mm 7 mps 748 mmHg 79%
    13:00 +10°C° 0.2 mm 7 mps 748 mmHg 78%
    14:00 +10°C° 0.1 mm 6 mps 748 mmHg 78%
    15:00 +10°C° 0.1 mm 6 mps 748 mmHg 77%
    16:00 +10°C° 0.1 mm 6 mps 748 mmHg 76%
    17:00 +10°C° 0.1 mm 6 mps 748 mmHg 77%
    18:00 +9°C° 0.1 mm 5 mps 748 mmHg 79%
    19:00 +9°C° 0.1 mm 5 mps 748 mmHg 80%
    20:00 +10°C° 0 mm 4 mps 748 mmHg 80%
    21:00 +10°C° 0 mm 4 mps 748 mmHg 80%
    22:00 +9°C° 0 mm 3 mps 748 mmHg 81%
    23:00 +8°C° 0 mm 3 mps 748 mmHg 85%

    27 May, Monday

    Time Temperature Precipitation Wind Pressure Humidity
    00:00 +7°C° 0 mm 3 mps 748 mmHg 88%
    01:00 +5°C° 0 mm 3 mps 749 mmHg 92%
    02:00 +5°C° 0 mm 3 mps 749 mmHg 93%
    03:00 +5°C° 0 mm 3 mps 749 mmHg 94%
    04:00 +5°C° 0 mm 3 mps 749 mmHg 95%
    05:00 +7°C° 0 mm 3 mps 749 mmHg 89%
    06:00 +9°C° 0 mm 3 mps 749 mmHg 83%
    07:00 +11°C° 0 mm 3 mps 749 mmHg 77%
    08:00 +12°C° 0 mm 4 mps 749 mmHg 78%
    09:00 +13°C° 0 mm 4 mps 749 mmHg 79%
    10:00 +14°C° 0 mm 4 mps 749 mmHg 80%
    11:00 +15°C° 0.3 mm 5 mps 748 mmHg 81%
    12:00 +15°C° 0.3 mm 6 mps 748 mmHg 82%
    13:00 +16°C° 0.3 mm 7 mps 747 mmHg 82%
    14:00 +17°C° 0.7 mm 6 mps 747 mmHg 81%
    15:00 +17°C° 0.7 mm 6 mps 747 mmHg 81%
    16:00 +17°C° 0.7 mm 6 mps 747 mmHg 80%
    17:00 +17°C° 0.1 mm 5 mps 747 mmHg 82%
    18:00 +17°C° 0.1 mm 3 mps 747 mmHg 85%
    19:00 +16°C° 0.1 mm 2 mps 747 mmHg 87%
    20:00 +15°C° 0 mm 2 mps 748 mmHg 90%
    21:00 +12°C° 0 mm 3 mps 749 mmHg 93%
    22:00 +11°C° 0 mm 3 mps 749 mmHg 96%
    23:00 +10°C° 0 mm 3 mps 749 mmHg 95%
    Show more